Time,TemperatureF,DewpointF,PressureIn,WindDirection,WindDirectionDegrees,WindSpeedMPH,WindSpeedGustMPH,Humidity,HourlyPrecipIn,Conditions,Clouds,dailyrainin,SolarRadiationWatts/m^2,SoftwareType,DateUTC
2013-03-04 00:01:00,49.0,30.0,-100.00,NNW,344,9.0,14.0,48,-99.99,,,-99.99,0.000000,,2013-03-04 08:01:00,
2013-03-04 00:11:00,48.0,30.0,-100.00,NNW,339,8.0,11.0,49,-99.99,,,-99.99,0.000000,,2013-03-04 08:11:00,
2013-03-04 00:21:00,48.0,30.0,-100.00,NNW,338,7.0,11.0,50,-99.99,,,-99.99,0.000000,,2013-03-04 08:21:00,
2013-03-04 00:31:00,48.0,31.0,-100.00,NNW,341,8.0,14.0,51,-99.99,,,-99.99,0.000000,,2013-03-04 08:31:00,
2013-03-04 00:41:00,48.0,31.0,-100.00,NNW,343,8.0,15.0,52,-99.99,,,-99.99,0.000000,,2013-03-04 08:41:00,
2013-03-04 00:52:00,47.0,32.0,-100.00,NNW,346,7.0,13.0,56,-99.99,,,-99.99,0.000000,,2013-03-04 08:52:00,
2013-03-04 01:01:00,47.0,32.0,-100.00,NNW,346,7.0,13.0,56,-99.99,,,-99.99,0.000000,,2013-03-04 09:01:00,
2013-03-04 01:11:00,47.0,33.0,-100.00,NNW,348,6.0,9.0,57,-99.99,,,-99.99,0.000000,,2013-03-04 09:11:00,
2013-03-04 01:21:00,47.0,33.0,-100.00,NNW,346,7.0,13.0,58,-99.99,,,-99.99,0.000000,,2013-03-04 09:21:00,
2013-03-04 01:31:00,47.0,34.0,-100.00,NNW,335,7.0,12.0,60,-99.99,,,-99.99,0.000000,,2013-03-04 09:31:00,
2013-03-04 01:41:00,46.0,34.0,-100.00,NNW,331,6.0,9.0,62,-99.99,,,-99.99,0.000000,,2013-03-04 09:41:00,
2013-03-04 01:51:00,46.0,35.0,-100.00,NNW,348,7.0,10.0,65,-99.99,,,-99.99,0.000000,,2013-03-04 09:51:00,
2013-03-04 02:01:00,46.0,36.0,-100.00,NNW,346,7.0,11.0,67,-99.99,,,-99.99,0.000000,,2013-03-04 10:01:00,
2013-03-04 02:11:00,46.0,36.0,-100.00,North,352,8.0,12.0,68,-99.99,,,-99.99,0.000000,,2013-03-04 10:11:00,
2013-03-04 02:21:00,46.0,37.0,-100.00,NNW,347,8.0,13.0,70,-99.99,,,-99.99,0.000000,,2013-03-04 10:21:00,
2013-03-04 02:31:00,45.0,36.0,-100.00,NNW,328,7.0,11.0,71,-99.99,,,-99.99,0.000000,,2013-03-04 10:31:00,
2013-03-04 02:41:00,45.0,37.0,-100.00,NNW,330,7.0,10.0,72,-99.99,,,-99.99,0.000000,,2013-03-04 10:41:00,
2013-03-04 02:52:00,45.0,37.0,-100.00,NNW,332,7.0,12.0,72,-99.99,,,-99.99,0.000000,,2013-03-04 10:52:00,
2013-03-04 03:01:00,45.0,37.0,-100.00,NNW,336,8.0,10.0,72,-99.99,,,-99.99,0.000000,,2013-03-04 11:01:00,
2013-03-04 03:11:00,45.0,37.0,-100.00,NNW,333,8.0,11.0,72,-99.99,,,-99.99,0.000000,,2013-03-04 11:11:00,
2013-03-04 03:21:00,44.0,36.0,-100.00,NNW,332,8.0,12.0,73,-99.99,,,-99.99,0.000000,,2013-03-04 11:21:00,
2013-03-04 03:31:00,44.0,36.0,-100.00,NNW,332,8.0,12.0,73,-99.99,,,-99.99,0.000000,,2013-03-04 11:31:00,
2013-03-04 03:41:00,44.0,36.0,-100.00,NNW,333,8.0,12.0,73,-99.99,,,-99.99,0.000000,,2013-03-04 11:41:00,
2013-03-04 03:52:00,44.0,36.0,-100.00,NNW,328,7.0,10.0,72,-99.99,,,-99.99,0.000000,,2013-03-04 11:52:00,
2013-03-04 04:01:00,44.0,36.0,-100.00,NNW,328,7.0,10.0,72,-99.99,,,-99.99,0.000000,,2013-03-04 12:01:00,
2013-03-04 04:11:00,44.0,36.0,-100.00,NNW,342,7.0,11.0,72,-99.99,,,-99.99,0.000000,,2013-03-04 12:11:00,
2013-03-04 04:22:00,45.0,36.0,-100.00,NNW,338,8.0,16.0,70,-99.99,,,-99.99,0.000000,,2013-03-04 12:22:00,
2013-03-04 04:32:00,45.0,36.0,-100.00,NNW,334,8.0,13.0,70,-99.99,,,-99.99,0.000000,,2013-03-04 12:32:00,
2013-03-04 04:42:00,44.0,36.0,-100.00,NNW,329,7.0,10.0,74,-99.99,,,-99.99,0.000000,,2013-03-04 12:42:00,
2013-03-04 04:52:00,43.0,36.0,-100.00,NNW,342,8.0,11.0,76,-99.99,,,-99.99,0.000000,,2013-03-04 12:52:00,
2013-03-04 05:02:00,42.0,35.0,-100.00,NNW,335,6.0,9.0,77,-99.99,,,-99.99,0.000000,,2013-03-04 13:02:00,
2013-03-04 05:11:00,42.0,35.0,-100.00,NNW,333,6.0,8.0,77,-99.99,,,-99.99,0.000000,,2013-03-04 13:11:00,
2013-03-04 05:21:00,42.0,37.0,-100.00,North,351,8.0,13.0,81,-99.99,,,-99.99,0.000000,,2013-03-04 13:21:00,
2013-03-04 05:31:00,43.0,38.0,-100.00,NNW,336,8.0,15.0,82,-99.99,,,-99.99,0.000000,,2013-03-04 13:31:00,
2013-03-04 05:41:00,43.0,38.0,-100.00,NNW,346,10.0,16.0,83,-99.99,,,-99.99,0.000000,,2013-03-04 13:41:00,
2013-03-04 05:51:00,43.0,38.0,-100.00,North,5,11.0,14.0,84,-99.99,,,-99.99,0.000000,,2013-03-04 13:51:00,
2013-03-04 06:01:00,43.0,39.0,-100.00,NNW,341,7.0,12.0,85,-99.99,,,-99.99,0.000000,,2013-03-04 14:01:00,
2013-03-04 06:11:00,43.0,38.0,-100.00,NNW,335,7.0,12.0,84,-99.99,,,-99.99,0.000000,,2013-03-04 14:11:00,
2013-03-04 06:22:00,43.0,38.0,-100.00,NNW,346,9.0,14.0,84,-99.99,,,-99.99,0.000000,,2013-03-04 14:22:00,
2013-03-04 06:31:00,43.0,39.0,-100.00,NNW,341,6.0,10.0,85,-99.99,,,-99.99,0.000000,,2013-03-04 14:31:00,
2013-03-04 06:41:00,44.0,40.0,-100.00,NNW,334,8.0,13.0,85,-99.99,,,-99.99,0.000000,,2013-03-04 14:41:00,
2013-03-04 06:52:00,44.0,39.0,-100.00,NW,320,7.0,12.0,84,-99.99,,,-99.99,0.000000,,2013-03-04 14:52:00,
2013-03-04 07:01:00,44.0,39.0,-100.00,NW,320,6.0,11.0,81,-99.99,,,-99.99,0.000000,,2013-03-04 15:01:00,
2013-03-04 07:11:00,44.0,39.0,-100.00,North,356,3.0,7.0,81,-99.99,,,-99.99,0.000000,,2013-03-04 15:11:00,
2013-03-04 07:21:00,44.0,39.0,-100.00,SW,216,1.0,3.0,82,-99.99,,,-99.99,0.000000,,2013-03-04 15:21:00,
2013-03-04 07:31:00,43.0,38.0,-100.00,South,171,1.0,4.0,83,-99.99,,,-99.99,0.000000,,2013-03-04 15:31:00,
2013-03-04 07:41:00,44.0,39.0,-100.00,WSW,250,0.0,1.0,82,-99.99,,,-99.99,0.000000,,2013-03-04 15:41:00,
2013-03-04 07:51:00,44.0,38.0,-100.00,South,183,2.0,4.0,80,-99.99,,,-99.99,0.000000,,2013-03-04 15:51:00,
2013-03-04 08:02:00,46.0,39.0,-100.00,South,172,2.0,5.0,77,-99.99,,,-99.99,0.000000,,2013-03-04 16:02:00,
2013-03-04 08:11:00,46.0,39.0,-100.00,SSE,155,2.0,5.0,75,-99.99,,,-99.99,0.000000,,2013-03-04 16:11:00,
2013-03-04 08:21:00,47.0,39.0,-100.00,SSW,203,2.0,5.0,73,-99.99,,,-99.99,0.000000,,2013-03-04 16:21:00,
2013-03-04 08:31:00,48.0,39.0,-100.00,ESE,118,2.0,4.0,71,-99.99,,,-99.99,0.000000,,2013-03-04 16:31:00,
2013-03-04 08:41:00,49.0,39.0,-100.00,ESE,103,2.0,5.0,68,-99.99,,,-99.99,0.000000,,2013-03-04 16:41:00,
2013-03-04 08:52:00,52.0,38.0,-100.00,NNE,17,9.0,18.0,58,-99.99,,,-99.99,0.000000,,2013-03-04 16:52:00,
2013-03-04 09:01:00,54.0,37.0,-100.00,North,354,10.0,15.0,52,-99.99,,,-99.99,0.000000,,2013-03-04 17:01:00,
2013-03-04 09:11:00,54.0,35.0,-100.00,NNW,328,8.0,16.0,49,-99.99,,,-99.99,0.000000,,2013-03-04 17:11:00,
2013-03-04 09:21:00,55.0,35.0,-100.00,North,351,10.0,19.0,46,-99.99,,,-99.99,0.000000,,2013-03-04 17:21:00,
2013-03-04 09:31:00,56.0,36.0,-100.00,NNW,332,10.0,19.0,46,-99.99,,,-99.99,0.000000,,2013-03-04 17:31:00,
2013-03-04 09:42:00,56.0,35.0,-100.00,NNW,327,11.0,17.0,45,-99.99,,,-99.99,0.000000,,2013-03-04 17:42:00,
2013-03-04 09:52:00,57.0,35.0,-100.00,NNW,333,10.0,19.0,44,-99.99,,,-99.99,0.000000,,2013-03-04 17:52:00,
2013-03-04 10:01:00,57.0,35.0,-100.00,NW,325,10.0,17.0,44,-99.99,,,-99.99,0.000000,,2013-03-04 18:01:00,
2013-03-04 10:11:00,58.0,34.0,-100.00,North,0,12.0,17.0,41,-99.99,,,-99.99,0.000000,,2013-03-04 18:11:00,
2013-03-04 10:21:00,59.0,34.0,-100.00,NNW,343,10.0,17.0,39,-99.99,,,-99.99,0.000000,,2013-03-04 18:21:00,
2013-03-04 10:31:00,59.0,33.0,-100.00,NNW,333,9.0,14.0,38,-99.99,,,-99.99,0.000000,,2013-03-04 18:31:00,
2013-03-04 10:42:00,60.0,32.0,-100.00,NNW,347,9.0,15.0,34,-99.99,,,-99.99,0.000000,,2013-03-04 18:42:00,
2013-03-04 10:51:00,61.0,31.0,-100.00,NNW,340,7.0,15.0,32,-99.99,,,-99.99,0.000000,,2013-03-04 18:51:00,
2013-03-04 11:01:00,61.0,31.0,-100.00,NNW,340,7.0,15.0,32,-99.99,,,-99.99,0.000000,,2013-03-04 19:01:00,
2013-03-04 11:11:00,62.0,32.0,-100.00,NW,324,6.0,11.0,32,-99.99,,,-99.99,0.000000,,2013-03-04 19:11:00,
2013-03-04 11:21:00,62.0,33.0,-100.00,NW,325,6.0,12.0,33,-99.99,,,-99.99,0.000000,,2013-03-04 19:21:00,
2013-03-04 11:31:00,62.0,33.0,-100.00,NW,316,7.0,12.0,33,-99.99,,,-99.99,0.000000,,2013-03-04 19:31:00,
2013-03-04 11:41:00,63.0,35.0,-100.00,WNW,302,7.0,13.0,35,-99.99,,,-99.99,0.000000,,2013-03-04 19:41:00,
2013-03-04 11:51:00,62.0,37.0,-100.00,WNW,283,9.0,17.0,39,-99.99,,,-99.99,0.000000,,2013-03-04 19:51:00,
2013-03-04 12:01:00,61.0,38.0,-100.00,WSW,256,10.0,17.0,42,-99.99,,,-99.99,0.000000,,2013-03-04 20:01:00,
2013-03-04 12:11:00,60.0,37.0,-100.00,WSW,241,9.0,15.0,43,-99.99,,,-99.99,0.000000,,2013-03-04 20:11:00,
2013-03-04 12:21:00,60.0,38.0,-100.00,WNW,283,10.0,15.0,44,-99.99,,,-99.99,0.000000,,2013-03-04 20:21:00,
2013-03-04 12:31:00,59.0,38.0,-100.00,WNW,295,11.0,16.0,45,-99.99,,,-99.99,0.000000,,2013-03-04 20:31:00,
2013-03-04 12:41:00,59.0,38.0,-100.00,WNW,295,11.0,16.0,45,-99.99,,,-99.99,0.000000,,2013-03-04 20:41:00,
2013-03-04 12:52:00,60.0,40.0,-100.00,WNW,298,10.0,19.0,47,-99.99,,,-99.99,0.000000,,2013-03-04 20:52:00,
2013-03-04 13:01:00,59.0,39.0,-100.00,WNW,299,10.0,16.0,48,-99.99,,,-99.99,0.000000,,2013-03-04 21:01:00,
2013-03-04 13:11:00,60.0,40.0,-100.00,WNW,296,8.0,15.0,47,-99.99,,,-99.99,0.000000,,2013-03-04 21:11:00,
2013-03-04 13:21:00,60.0,39.0,-100.00,NW,304,8.0,13.0,46,-99.99,,,-99.99,0.000000,,2013-03-04 21:21:00,
2013-03-04 13:31:00,60.0,39.0,-100.00,NW,309,6.0,12.0,46,-99.99,,,-99.99,0.000000,,2013-03-04 21:31:00,
2013-03-04 13:42:00,61.0,40.0,-100.00,WNW,297,7.0,11.0,46,-99.99,,,-99.99,0.000000,,2013-03-04 21:42:00,
2013-03-04 13:52:00,61.0,40.0,-100.00,NW,310,4.0,12.0,45,-99.99,,,-99.99,0.000000,,2013-03-04 21:52:00,
2013-03-04 14:01:00,61.0,41.0,-100.00,NW,312,7.0,14.0,47,-99.99,,,-99.99,0.000000,,2013-03-04 22:01:00,
2013-03-04 14:11:00,61.0,41.0,-100.00,WNW,288,8.0,15.0,48,-99.99,,,-99.99,0.000000,,2013-03-04 22:11:00,
2013-03-04 14:21:00,60.0,41.0,-100.00,WNW,292,11.0,18.0,50,-99.99,,,-99.99,0.000000,,2013-03-04 22:21:00,
2013-03-04 14:31:00,59.0,41.0,-100.00,WNW,294,10.0,16.0,52,-99.99,,,-99.99,0.000000,,2013-03-04 22:31:00,
2013-03-04 14:42:00,59.0,41.0,-100.00,WNW,285,11.0,16.0,52,-99.99,,,-99.99,0.000000,,2013-03-04 22:42:00,
2013-03-04 14:51:00,60.0,41.0,-100.00,WNW,293,8.0,14.0,50,-99.99,,,-99.99,0.000000,,2013-03-04 22:51:00,
2013-03-04 15:01:00,60.0,41.0,-100.00,WNW,293,8.0,14.0,50,-99.99,,,-99.99,0.000000,,2013-03-04 23:01:00,
2013-03-04 15:11:00,60.0,42.0,-100.00,WNW,294,7.0,14.0,51,-99.99,,,-99.99,0.000000,,2013-03-04 23:11:00,
2013-03-04 15:21:00,60.0,41.0,-100.00,WNW,285,8.0,11.0,50,-99.99,,,-99.99,0.000000,,2013-03-04 23:21:00,
2013-03-04 15:31:00,60.0,42.0,-100.00,West,281,8.0,12.0,51,-99.99,,,-99.99,0.000000,,2013-03-04 23:31:00,
2013-03-04 15:41:00,60.0,42.0,-100.00,WNW,282,7.0,10.0,51,-99.99,,,-99.99,0.000000,,2013-03-04 23:41:00,
2013-03-04 15:52:00,60.0,41.0,-100.00,WNW,286,5.0,9.0,49,-99.99,,,-99.99,0.000000,,2013-03-04 23:52:00,
2013-03-04 16:01:00,61.0,41.0,-100.00,NW,306,5.0,8.0,48,-99.99,,,-99.99,0.000000,,2013-03-05 00:01:00,
2013-03-04 16:11:00,61.0,41.0,-100.00,NW,306,5.0,8.0,48,-99.99,,,-99.99,0.000000,,2013-03-05 00:11:00,
2013-03-04 16:21:00,61.0,41.0,-100.00,West,281,5.0,9.0,48,-99.99,,,-99.99,0.000000,,2013-03-05 00:21:00,
2013-03-04 16:32:00,61.0,41.0,-100.00,West,278,5.0,8.0,48,-99.99,,,-99.99,0.000000,,2013-03-05 00:32:00,
2013-03-04 16:41:00,61.0,41.0,-100.00,WNW,282,5.0,9.0,48,-99.99,,,-99.99,0.000000,,2013-03-05 00:41:00,
2013-03-04 16:51:00,61.0,42.0,-100.00,WNW,286,6.0,10.0,50,-99.99,,,-99.99,0.000000,,2013-03-05 00:51:00,
2013-03-04 17:01:00,61.0,42.0,-100.00,NW,313,6.0,10.0,50,-99.99,,,-99.99,0.000000,,2013-03-05 01:01:00,
2013-03-04 17:11:00,60.0,42.0,-100.00,WNW,301,5.0,9.0,51,-99.99,,,-99.99,0.000000,,2013-03-05 01:11:00,
2013-03-04 17:21:00,60.0,43.0,-100.00,NW,314,5.0,8.0,53,-99.99,,,-99.99,0.000000,,2013-03-05 01:21:00,
2013-03-04 17:32:00,60.0,42.0,-100.00,NW,305,5.0,8.0,52,-99.99,,,-99.99,0.000000,,2013-03-05 01:32:00,
2013-03-04 17:41:00,60.0,42.0,-100.00,NW,305,5.0,8.0,52,-99.99,,,-99.99,0.000000,,2013-03-05 01:41:00,
2013-03-04 17:51:00,59.0,43.0,-100.00,NW,307,4.0,8.0,56,-99.99,,,-99.99,0.000000,,2013-03-05 01:51:00,
2013-03-04 18:01:00,58.0,43.0,-100.00,NNW,342,4.0,8.0,58,-99.99,,,-99.99,0.000000,,2013-03-05 02:01:00,
2013-03-04 18:11:00,57.0,43.0,-100.00,NNW,331,4.0,8.0,59,-99.99,,,-99.99,0.000000,,2013-03-05 02:11:00,
2013-03-04 18:21:00,57.0,43.0,-100.00,NNW,341,6.0,9.0,59,-99.99,,,-99.99,0.000000,,2013-03-05 02:21:00,
2013-03-04 18:31:00,56.0,42.0,-100.00,NNW,345,6.0,9.0,59,-99.99,,,-99.99,0.000000,,2013-03-05 02:31:00,
2013-03-04 18:41:00,56.0,43.0,-100.00,North,351,7.0,9.0,61,-99.99,,,-99.99,0.000000,,2013-03-05 02:41:00,
2013-03-04 18:52:00,55.0,42.0,-100.00,NNW,339,4.0,9.0,62,-99.99,,,-99.99,0.000000,,2013-03-05 02:52:00,
2013-03-04 19:01:00,55.0,43.0,-100.00,NW,310,4.0,7.0,63,-99.99,,,-99.99,0.000000,,2013-03-05 03:01:00,
2013-03-04 19:11:00,53.0,42.0,-100.00,SW,229,3.0,6.0,66,-99.99,,,-99.99,0.000000,,2013-03-05 03:11:00,
2013-03-04 19:21:00,52.0,42.0,-100.00,NE,43,1.0,2.0,69,-99.99,,,-99.99,0.000000,,2013-03-05 03:21:00,
2013-03-04 19:31:00,52.0,43.0,-100.00,NNE,16,0.0,1.0,71,-99.99,,,-99.99,0.000000,,2013-03-05 03:31:00,
2013-03-04 19:41:00,51.0,42.0,-100.00,NNE,21,2.0,5.0,71,-99.99,,,-99.99,0.000000,,2013-03-05 03:41:00,
2013-03-04 19:51:00,50.0,42.0,-100.00,North,350,3.0,6.0,73,-99.99,,,-99.99,0.000000,,2013-03-05 03:51:00,
2013-03-04 20:01:00,49.0,41.0,-100.00,NNW,344,4.0,6.0,74,-99.99,,,-99.99,0.000000,,2013-03-05 04:01:00,
2013-03-04 20:11:00,48.0,40.0,-100.00,North,355,4.0,6.0,74,-99.99,,,-99.99,0.000000,,2013-03-05 04:11:00,
2013-03-04 20:21:00,47.0,40.0,-100.00,North,349,3.0,5.0,76,-99.99,,,-99.99,0.000000,,2013-03-05 04:21:00,
2013-03-04 20:31:00,47.0,39.0,-100.00,NNE,12,4.0,6.0,75,-99.99,,,-99.99,0.000000,,2013-03-05 04:31:00,
2013-03-04 20:41:00,46.0,40.0,-100.00,NNE,15,3.0,5.0,79,-99.99,,,-99.99,0.000000,,2013-03-05 04:41:00,
2013-03-04 20:51:00,46.0,39.0,-100.00,North,353,5.0,7.0,75,-99.99,,,-99.99,0.000000,,2013-03-05 04:51:00,
2013-03-04 21:01:00,46.0,38.0,-100.00,North,357,5.0,7.0,74,-99.99,,,-99.99,0.000000,,2013-03-05 05:01:00,
2013-03-04 21:11:00,46.0,39.0,-100.00,NNW,343,5.0,7.0,75,-99.99,,,-99.99,0.000000,,2013-03-05 05:11:00,
2013-03-04 21:22:00,45.0,36.0,-100.00,North,354,5.0,8.0,71,-99.99,,,-99.99,0.000000,,2013-03-05 05:22:00,
2013-03-04 21:31:00,45.0,36.0,-100.00,North,357,5.0,8.0,71,-99.99,,,-99.99,0.000000,,2013-03-05 05:31:00,
2013-03-04 21:41:00,45.0,36.0,-100.00,North,352,4.0,8.0,71,-99.99,,,-99.99,0.000000,,2013-03-05 05:41:00,
2013-03-04 21:52:00,45.0,35.0,-100.00,NNW,348,5.0,8.0,68,-99.99,,,-99.99,0.000000,,2013-03-05 05:52:00,
2013-03-04 22:01:00,44.0,39.0,-100.00,NE,38,3.0,4.0,82,-99.99,,,-99.99,0.000000,,2013-03-05 06:01:00,
2013-03-04 22:11:00,43.0,38.0,-100.00,NNE,18,3.0,5.0,83,-99.99,,,-99.99,0.000000,,2013-03-05 06:11:00,
2013-03-04 22:21:00,44.0,38.0,-100.00,North,8,4.0,6.0,80,-99.99,,,-99.99,0.000000,,2013-03-05 06:21:00,
2013-03-04 22:31:00,44.0,35.0,-100.00,North,360,5.0,7.0,71,-99.99,,,-99.99,0.000000,,2013-03-05 06:31:00,
2013-03-04 22:41:00,44.0,35.0,-100.00,North,360,5.0,7.0,71,-99.99,,,-99.99,0.000000,,2013-03-05 06:41:00,
2013-03-04 22:52:00,44.0,34.0,-100.00,North,358,3.0,6.0,67,-99.99,,,-99.99,0.000000,,2013-03-05 06:52:00,
2013-03-04 23:01:00,44.0,34.0,-100.00,North,358,3.0,6.0,67,-99.99,,,-99.99,0.000000,,2013-03-05 07:01:00,
2013-03-04 23:11:00,44.0,35.0,-100.00,NNE,32,2.0,6.0,70,-99.99,,,-99.99,0.000000,,2013-03-05 07:11:00,
2013-03-04 23:21:00,43.0,36.0,-100.00,North,7,1.0,3.0,75,-99.99,,,-99.99,0.000000,,2013-03-05 07:21:00,
2013-03-04 23:31:00,42.0,36.0,-100.00,NNE,23,1.0,2.0,80,-99.99,,,-99.99,0.000000,,2013-03-05 07:31:00,
2013-03-04 23:41:00,42.0,36.0,-100.00,NNE,23,1.0,2.0,80,-99.99,,,-99.99,0.000000,,2013-03-05 07:41:00,
2013-03-04 23:51:00,42.0,36.0,-100.00,NE,49,1.0,2.0,78,-99.99,,,-99.99,0.000000,,2013-03-05 07:51:00,